Location: Newark
(33.6333°S, 78.8500°W)
Time: 22:55:48
(UTC+00:00)

Tiros 1 - Pass Details

Date: 21 October 2019
Orbit: 630 x 664 km, 48.4° (Epoch: 14 November)

Event Time Altitude Azimuth Distance (km) Brightness Sun altitude
Rises 19:08:17 0° 272° (W) 2,947 11.0 52.8°
Reaches altitude 10° 19:11:01 10° 258° (WSW) 2,036 10.3 52.3°
Maximum altitude 19:14:49 24° 204° (SSW) 1,338 9.0 51.7°
Drops below altitude 10° 19:18:36 10° 149° (SSE) 2,033 9.5 51.0°
Sets 19:21:20 0° 135° (SE) 2,942 10.2 50.5°
